Weather History for Georgetown, DE

Change the Weather History Date:

Monday, October 29, 2012

  Actual Average Record
Temperature  
Mean Temperature 53 °F 54 °F  
Max Temperature 56 °F 64 °F 81 °F (1984)
Min Temperature 50 °F 43 °F 26 °F (1976)
Degree Days  
Heating Degree Days 12 12  
Month to date heating degree days 158 223  
Since 1 July heating degree days 186 261  
Cooling Degree Days 0 0  
Month to date cooling degree days 60 18  
Year to date cooling degree days 1616 1189  
Growing Degree Days 3 (Base 50)    
Moisture  
Dew Point 51 °F    
Average Humidity 97    
Maximum Humidity 100    
Minimum Humidity 93    
Precipitation  
Precipitation 3.14 in 0.13 in 6.60 in (2012)
Month to date precipitation 5.82 3.48  
Year to date precipitation 29.19 36.88  
Sea Level Pressure  
Sea Level Pressure 28.96 in    
Wind  
Wind Speed 18 mph (NNW)    
Max Wind Speed 27 mph    
Max Gust Speed 50 mph    
Visibility 2 miles    
Events Rain    
T = Trace of Precipitation, MM = Missing Value Source: NWS Daily Summary

Daily Weather History Graph

Daily Weather History Graph

Search for Another Location

Airport:

Trip Planner

Search our weather history database for the weather conditions in past years. The results will help you decide how hot, cold, wet, or windy it might be!

Date:

Astronomy

Oct. 29, 2012 Rise Set
Actual Time 7:25 AM EDT 6:04 PM EDT
Civil Twilight 6:58 AM EDT 6:31 PM EDT
Nautical Twilight 6:26 AM EDT 7:02 PM EDT
Astronomical Twilight 5:55 AM EDT 7:33 PM EDT
Moon 5:55 PM EDT (10/29) 7:13 AM EDT (10/29)
Length of Visible Light 11h 33m
Length of Day
10h 38m
Full, 100% of the Moon is Illuminated
Oct 29
Full
Oct 29
Full
Nov 6
Last Quarter
Nov 13
New
Nov 20
First Quarter

Hourly Weather History & Observations

Time (EDT) Temp. Dew Point Humidity Pressure Visibility Wind Dir Wind Speed Gust Speed Precip Events Conditions
12:29 AM 55.4 °F - N/A% 29.46 in 5.0 mi NNE 21.9 mph 33.4 mph 0.12 in Rain Rain
12:54 AM 55.9 °F - N/A% 29.45 in 9.0 mi NNE 20.7 mph 33.4 mph 0.15 in Rain Light Rain
1:54 AM 55.0 °F - N/A% 29.42 in 8.0 mi NNE 16.1 mph 29.9 mph 0.07 in Rain Light Rain
2:39 AM 55.4 °F - N/A% 29.40 in 4.0 mi North 18.4 mph 29.9 mph 0.11 in Rain Heavy Rain
2:54 AM 55.0 °F - N/A% 29.40 in 4.0 mi North 18.4 mph 26.5 mph 0.19 in Rain Heavy Rain
3:54 AM 54.0 °F - N/A% 29.37 in 4.0 mi North 18.4 mph 31.1 mph 0.34 in Rain Heavy Rain
4:11 AM 53.6 °F - N/A% 29.35 in 4.0 mi North 20.7 mph 38.0 mph 0.07 in Rain Heavy Rain
4:54 AM 53.1 °F 52.0 °F 96% 29.35 in 3.0 mi North 15.0 mph 26.5 mph 0.29 in Rain Heavy Rain
5:01 AM 53.6 °F 51.8 °F 94% 29.35 in 3.0 mi North 17.3 mph 29.9 mph 0.04 in Rain Heavy Rain
5:20 AM 53.6 °F 51.8 °F 94% 29.34 in 3.0 mi North 18.4 mph 26.5 mph 0.14 in Rain Heavy Rain
5:30 AM 53.6 °F 51.8 °F 94% 29.34 in 2.5 mi North 13.8 mph 25.3 mph 0.20 in Rain Heavy Rain
5:42 AM 53.6 °F 51.8 °F 94% 29.34 in 3.0 mi North 15.0 mph 25.3 mph 0.26 in Rain Heavy Rain
5:50 AM 53.6 °F 51.8 °F 94% 29.33 in 3.0 mi North 17.3 mph 25.3 mph 0.31 in Rain Heavy Rain
5:54 AM 53.1 °F 51.1 °F 93% 29.33 in 2.5 mi North 12.7 mph 25.3 mph 0.34 in Rain Heavy Rain
6:14 AM 51.8 °F 50.0 °F 94% 29.31 in 1.8 mi North 13.8 mph 32.2 mph 0.22 in Rain Heavy Rain
6:24 AM 51.8 °F 50.0 °F 94% 29.29 in 1.5 mi North 13.8 mph 26.5 mph 0.37 in Rain Heavy Rain
6:32 AM 51.8 °F 50.0 °F 94% 29.29 in 1.8 mi NNW 13.8 mph 27.6 mph 0.37 in Rain Heavy Rain
6:51 AM 51.8 °F 50.0 °F 94% 29.27 in 2.0 mi NNW 17.3 mph 29.9 mph 0.49 in Rain Heavy Rain
6:54 AM 52.0 °F 50.0 °F 93% 29.26 in 2.5 mi NNW 13.8 mph 29.9 mph 0.52 in Rain Heavy Rain
7:05 AM 51.8 °F 50.0 °F 94% 29.25 in 3.0 mi NNW 13.8 mph 27.6 mph N/A Rain Heavy Rain
7:13 AM 51.8 °F 50.0 °F 94% 29.24 in 3.0 mi NNW 17.3 mph 31.1 mph N/A Rain Heavy Rain
7:30 AM 51.8 °F 50.0 °F 94% 29.23 in 4.0 mi NNW 13.8 mph 35.7 mph N/A Rain Rain
7:54 AM 52.0 °F 50.0 °F 93% 29.23 in 4.0 mi NNW 15.0 mph 26.5 mph N/A Rain Rain
8:54 AM 53.1 °F - N/A% 29.16 in 2.5 mi NNW 13.8 mph 31.1 mph N/A Rain Heavy Rain
9:02 AM 53.6 °F 51.8 °F 94% 29.14 in 1.5 mi NNW 21.9 mph 33.4 mph 0.00 in Rain Heavy Rain
9:24 AM 53.6 °F 51.8 °F 94% 29.12 in 2.0 mi NNW 13.8 mph 28.8 mph N/A Rain Rain
9:29 AM 53.6 °F 51.8 °F 94% 29.12 in 2.5 mi NNW 16.1 mph 32.2 mph N/A Rain Rain
9:54 AM 53.1 °F - N/A% 29.09 in 2.0 mi NNW 13.8 mph 31.1 mph N/A Rain Heavy Rain
10:01 AM 53.6 °F - N/A% 29.08 in 1.5 mi NNW 17.3 mph 33.4 mph N/A Rain Heavy Rain
10:24 AM 53.6 °F - N/A% 29.05 in 2.0 mi NNW 17.3 mph 32.2 mph N/A Rain Heavy Rain
10:31 AM 53.6 °F - N/A% 29.05 in 1.5 mi NNW 20.7 mph 32.2 mph N/A Rain Heavy Rain
10:54 AM 53.1 °F - N/A% 29.02 in 1.8 mi NNW 19.6 mph 32.2 mph N/A Rain Rain
10:56 AM 53.6 °F - N/A% 29.02 in 2.0 mi NNW 20.7 mph 36.8 mph 0.01 in Rain Rain
10:59 AM 53.6 °F - N/A% 29.02 in 2.0 mi NNW 18.4 mph 36.8 mph 0.01 in Rain Light Rain
11:02 AM 53.6 °F - N/A% 29.02 in 1.8 mi NNW 15.0 mph 36.8 mph 0.02 in Rain Rain
11:15 AM 53.6 °F - N/A% 29.00 in 2.0 mi NNW 17.3 mph 33.4 mph 0.05 in Rain Rain
11:35 AM 53.6 °F - N/A% 28.97 in 1.2 mi NNW 20.7 mph 35.7 mph 0.12 in Rain Heavy Rain
11:54 AM 53.1 °F - N/A% 28.93 in 1.8 mi NNW 16.1 mph 28.8 mph 0.24 in Rain Rain
12:19 PM 53.6 °F 51.8 °F 94% 28.90 in 2.0 mi NNW 12.7 mph 28.8 mph 0.09 in Rain Heavy Rain
12:32 PM 53.6 °F 51.8 °F 94% 28.88 in 1.5 mi NNW 20.7 mph 32.2 mph 0.17 in Rain Heavy Rain
12:45 PM 53.6 °F 51.8 °F 94% 28.86 in 2.0 mi NNW 21.9 mph 36.8 mph 0.18 in Rain Heavy Rain
12:54 PM 53.1 °F 51.1 °F 93% 28.84 in 2.0 mi NW 19.6 mph 36.8 mph 0.18 in Rain Heavy Rain
1:01 PM 53.6 °F 51.8 °F 94% 28.83 in 1.8 mi NW 13.8 mph 32.2 mph 0.00 in Rain Heavy Rain
1:54 PM 53.1 °F 51.1 °F 93% 28.76 in 2.0 mi NW 16.1 mph 27.6 mph N/A Rain Heavy Rain
2:00 PM 53.6 °F 51.8 °F 94% 28.75 in 1.8 mi NW 19.6 mph 33.4 mph N/A Rain Heavy Rain
2:21 PM 53.6 °F 51.8 °F 94% 28.69 in 1.0 mi NW 21.9 mph 36.8 mph N/A Rain Heavy Rain
2:31 PM 51.8 °F 50.0 °F 94% 28.67 in 1.5 mi WNW 28.8 mph 42.6 mph N/A Rain Heavy Rain
2:54 PM 52.0 °F 51.1 °F 97% 28.62 in 1.5 mi NW 23.0 mph 40.3 mph N/A Rain Heavy Rain
3:09 PM 51.8 °F - N/A% 28.62 in 2.5 mi WNW 19.6 mph 38.0 mph N/A Rain Rain
3:18 PM 51.8 °F - N/A% 28.61 in 2.5 mi NW 18.4 mph 36.8 mph N/A Rain Heavy Rain
3:24 PM 51.8 °F - N/A% 28.61 in 1.8 mi NW 15.0 mph 36.8 mph N/A Rain Heavy Rain
3:41 PM 51.8 °F - N/A% 28.58 in 1.8 mi WNW 20.7 mph 40.3 mph N/A Rain Heavy Rain
4:01 PM 51.8 °F - N/A% 28.53 in 1.2 mi WNW 24.2 mph 43.7 mph N/A Rain Heavy Rain
4:09 PM 51.8 °F - N/A% 28.53 in 3.0 mi WNW 23.0 mph 49.5 mph N/A Rain Rain
4:17 PM 51.8 °F - N/A% 28.53 in 1.8 mi WNW 20.7 mph 41.4 mph N/A Rain Heavy Rain
4:27 PM 51.8 °F - N/A% 28.51 in 0.8 mi WNW 23.0 mph 40.3 mph N/A Rain Heavy Rain
4:37 PM 51.8 °F - N/A% 28.49 in 1.2 mi WNW 21.9 mph 43.7 mph N/A Rain Heavy Rain
4:54 PM 52.0 °F - N/A% 28.46 in 1.2 mi WNW 19.6 mph 41.4 mph N/A Rain Heavy Rain
5:54 PM 52.0 °F - N/A% 28.43 in 1.8 mi WNW 25.3 mph 41.4 mph 0.61 in Rain Heavy Rain
6:22 PM 51.8 °F 48.2 °F 88% 28.43 in 1.2 mi West 28.8 mph 41.4 mph N/A Rain Heavy Rain
6:39 PM 51.8 °F 48.2 °F 88% 28.42 in 1.5 mi West 26.5 mph 48.3 mph N/A Rain Heavy Rain
6:54 PM 52.0 °F 50.0 °F 93% 28.43 in 1.8 mi West 21.9 mph 38.0 mph N/A Rain Heavy Rain
7:04 PM 51.8 °F 48.2 °F 88% 28.43 in 2.0 mi West 23.0 mph 41.4 mph 0.04 in Rain Rain
7:29 PM 51.8 °F - N/A% 28.43 in 1.5 mi West 20.7 mph 49.5 mph 0.18 in Rain Heavy Rain
7:54 PM 50.0 °F - N/A% 28.43 in 2.0 mi West 25.3 mph 42.6 mph 0.36 in Rain Heavy Rain